Location: Newark
(49.3667°N, 21.6167°E)
Time: 14:01:45
(UTC+00:00)

N. Korean satellite - Visible Passes

Search period start: 08 December 2019 00:00
Search period end: 18 December 2019 00:00
Orbit: 456 x 506 km, 97.2° (Epoch: 07 December)

Date Brightness Start Highest point End Pass type
(mag) Time Alt. Az. Time Alt. Az. Time Alt. Az.
08 Dec 7.3 04:18:11 10° NNE 04:21:43 53° E 04:25:08 10° S visible
08 Dec 9.6 16:31:42 10° SW 16:34:23 19° W 16:37:04 10° NW visible
09 Dec 8.7 03:53:04 10° NE 03:56:09 27° E 03:59:11 10° SSE visible
09 Dec 7.6 05:26:32 10° NNW 05:29:29 24° WNW 05:32:23 10° WSW visible
09 Dec 8.5 16:05:23 10° SSW 16:08:47 34° W 16:12:12 10° NNW visible
10 Dec 9.8 03:28:28 10° NE 03:30:30 15° E 03:32:31 10° SE visible
10 Dec 6.8 05:00:46 10° N 05:04:11 45° WNW 05:07:32 10° SW visible
10 Dec 7.0 15:39:35 10° S 15:43:16 67° WSW 15:46:58 10° NNW visible
11 Dec 6.5 04:35:13 10° NNE 04:38:47 88° ESE 04:42:16 10° SSW visible
11 Dec 6.6 15:14:12 10° SSE 15:17:51 61° ENE 15:21:31 10° N visible
11 Dec 10.0 16:50:02 10° WSW 16:51:38 12° W 16:53:13 10° WNW visible
12 Dec 7.8 04:09:54 10° NNE 04:13:18 42° E 04:16:37 10° S visible
12 Dec 9.3 16:23:00 10° SSW 16:25:58 22° W 16:28:55 10° NW visible
13 Dec 9.1 03:44:54 10° NE 03:47:43 22° E 03:50:29 10° SE visible
13 Dec 7.3 05:18:02 10° N 05:21:09 29° WNW 05:24:12 10° SW visible
13 Dec 8.0 15:56:52 10° S 16:00:24 42° W 16:03:55 10° NNW visible
14 Dec 10.0 03:20:43 10° ENE 03:22:02 12° E 03:23:20 10° ESE visible
14 Dec 6.5 04:52:21 10° N 04:55:49 57° WNW 04:59:13 10° SSW visible
14 Dec 6.7 15:31:13 10° SSE 15:34:55 84° WSW 15:38:36 10° NNW visible
15 Dec 6.7 04:26:52 10° NNE 04:30:23 69° ESE 04:33:49 10° S visible
15 Dec 6.8 15:05:57 10° SSE 15:09:31 49° ENE 15:13:03 10° N visible
15 Dec 9.9 16:41:00 10° SW 16:43:10 15° W 16:45:20 10° NW visible
16 Dec 8.3 04:01:37 10° NNE 04:04:51 33° E 04:08:01 10° SSE visible
16 Dec 7.8 05:35:28 10° NNW 05:38:04 20° WNW 05:40:37 10° WSW visible
16 Dec 9.0 16:14:22 10° SSW 16:17:32 27° W 16:20:42 10° NW visible
17 Dec 9.4 03:36:47 10° NE 03:39:14 18° E 03:41:39 10° SE visible
17 Dec 7.0 05:09:33 10° N 05:12:47 35° WNW 05:15:57 10° SW visible
17 Dec 7.6 15:48:24 10° S 15:51:59 52° W 15:55:34 10° NNW visible
